Location: Livorno
(43.5500°N, 10.3170°E)
Time: 13:18:23
(UTC+01:00)

N. Korean satellite - Visible Passes

Search period start: 28 October 2020 00:00
Search period end: 07 November 2020 00:00
Orbit: 452 x 505 km, 97.2° (Epoch: 27 October)

Date Brightness Start Highest point End Pass type
(mag) Time Alt. Az. Time Alt. Az. Time Alt. Az.
28 Oct 6.3 06:00:28 10° N 06:03:54 77° WNW 06:07:17 10° SSW visible
28 Oct 10.2 18:12:01 10° WSW 18:13:27 12° W 18:14:53 10° WNW visible
29 Oct 7.7 05:34:27 10° NNE 05:37:44 44° E 05:41:01 10° S visible
29 Oct 9.4 17:44:13 10° SSW 17:47:09 24° W 17:50:04 10° NW visible
30 Oct 9.3 05:08:50 10° NE 05:11:30 21° E 05:14:08 10° SE visible
31 Oct 6.7 06:15:29 10° N 06:18:47 46° WNW 06:22:03 10° SSW visible
01 Nov 6.6 05:49:14 10° NNE 05:52:40 74° ESE 05:56:05 10° S visible
01 Nov 9.9 17:59:54 10° SW 18:02:09 16° W 18:04:23 10° NW visible
02 Nov 8.4 05:23:21 10° NNE 05:26:27 32° E 05:29:34 10° SSE visible
02 Nov 8.7 17:32:39 10° SSW 17:35:51 32° W 17:39:02 10° NNW visible
03 Nov 9.7 04:58:02 10° NE 05:00:10 15° E 05:02:17 10° SE visible
04 Nov 6.4 06:04:06 10° N 06:07:31 67° WNW 06:10:56 10° SSW visible
04 Nov 10.5 18:16:34 10° W 18:17:09 10° W 18:17:43 10° W visible
05 Nov 7.4 05:37:59 10° NNE 05:41:21 51° E 05:44:43 10° S visible
05 Nov 9.5 17:48:04 10° SW 17:50:47 21° W 17:53:30 10° NW visible
06 Nov 9.0 05:12:16 10° NE 05:15:06 23° E 05:17:55 10° SSE visible
